sat.trackr.live / text

‹ back to catalog

THAICOM 6

NORAD 39500 · 2014-002A

PAYLOAD ACTIVE UNKNOWN

§ Identity

Operator
Country
THAI
Launch date
2014-01-06
Launch site
AFETR
Launch vehicle
Mass (kg)
RCS (m²)
12.59

Purposes: comms

External: N2YO · Heavens-Above · Gunter

§ Orbital elements

Epoch: 2026-05-25T02:24:23.005728Z

Period
1,436.10 min
Inclination
0.0799°
Eccentricity
0.0004183
Mean motion
1.00271883 rev/d
Perigee alt
35,768.9 km
Apogee alt
35,804.2 km
Semi-major
42,164.7 km
B*
0.0000e+0
RAAN
104.8001°
Arg perigee
348.3819°
Mean anomaly
264.1432°
Rev number
4,522

§ Raw data

THAICOM 61 39500U 14002A   26145.10026627 -.00000124  00000+0  00000+0 0  99922 39500   0.0799 104.8001 0004183 348.3819 264.1432  1.00271883 45225

JSON: /api/v1/satellites/39500 · /tle

For live sub-satellite position, see the globe view (requires WebGL).

§ Visibility from observer

Set your observer location to see the next 7 days of passes ≥ 10°. The values pass through the URL so the page stays shareable.

No JS? Fill the form by hand. The geolocation button needs JavaScript.